Weather in Bogopol'

Russia / Primorsky Krai     44°14′54″N   135°27′24″E
temp.,
°C
wind,
m/s
gust,
m/s
humid.,
%
clouds,
%
prec.,
mm/h
press.,
hPa
HPBL,
m
9 may, sun
sun901:00+5e3993100 0.0 999394
04:00+5ene41189100 0.0 997503
07:00+5ene61592100 0.0 995651
10:00+5ene61395100 2.7 995663
13:00+5ene41293100 3.7 995829
16:00+4nne31092100 4.6 997875
19:00+4nw2497100 1.9 999471
22:00+4nw1297100 5.9 1001130
10 may, mon
mon1001:00+5w1196100 0.7 100351
04:00+5w1196100 0.8 100428
07:00+5se1197100 0.0 100681
10:00+7sw138863 0.1 1007432
13:00+11w577044 0.1 10071099
16:00+12wnw466445 0.1 10071082
19:00+9wnw357666 0.0 1009520
22:00+7wnw248895 0.0 1011110
11 may, tue
tue1101:00+5nw229398 0.0 101251
04:00+5se2396100 0.0 1014141
07:00+4sse1396100 0.1 1017306
10:00+4sse2293100 0.1 1019435
13:00+7se2179100 0.0 1019664
16:00+8ese217771 0.1 1019560
19:00+7se228291 0.0 1020383
22:00+5sse118992 0.0 102290
12 may, wed
wed1201:00+3wsw119472 0.0 102232
04:00+3wnw119521 0.0 102111
07:00+4nnw008941 0.0 102277
10:00+10se346635 0.0 1020745
13:00+12se4558100 0.0 10181099
16:00+11sse4559100 0.0 1017880
19:00+8se2376100 0.0 1017304
22:00+5nw0190100 0.0 101817
13 may, thu
thu1301:00+5ese0196100 0.9 101670
04:00+4nw11960 0.9 101610
07:00+6wnw12900 0.0 101676
10:00+13sw12630 0.0 1014507
13:00+20se273937 0.0 10122055
16:00+18se234895 0.0 1011630
19:00+15ese12677 0.0 101169
22:00+10nw117915 0.0 101210